AFL2143 LTAI-UUEE

Flight info

Callsign AFL2143
Flight time 4h 52m
Altitude 30000
Route TEWHE UR55 MUT UA285 SELVI/N0461F310 UA285 SIV UW706 TBN UN37 LAFNE/N0460F330 UN37 SARPI DCT FOQUS DCT LURIS/K0850F330 A955 PINMU DCT KUDAS DCT ITAKA/K0850F340 DCT TUVGI DCT EVZUN DCT ZIZAR DCT VAZLU DCT UZZID DCT NOKLI N72 WGD G481 OBABI T619 LUGIL T619 UMRAL/K0841F330 P163 LADIM P163 GOLRI L736 OLOPI
Aircraft A321/M-SDE3FGHIRWY/LB1

Departure

Time 2026-05-07 13:23
Airport Antalya International Airport (LTAI)

Arrival

Time 2026-05-07 18:16
Airport Sheremetyevo International Airport (UUEE)
Time Latitude Longitude Altitude Speed Heading
2026-05-07 12:22 36.89511 30.80445 197 ft 0 kts 186°
2026-05-07 13:09 36.89526 30.80447 200 ft 4 kts 184°
2026-05-07 13:10 36.89551 30.80450 206 ft 2 kts 186°
2026-05-07 13:10 36.89571 30.80449 203 ft 4 kts 136°
2026-05-07 13:10 36.89580 30.80423 199 ft 4 kts 96°
2026-05-07 13:10 36.89580 30.80428 203 ft 4 kts 96°
2026-05-07 13:11 36.89579 30.80440 205 ft 0 kts 96°
2026-05-07 13:13 36.89578 30.80452 199 ft 3 kts 96°
2026-05-07 13:14 36.89572 30.80511 192 ft 8 kts 97°
2026-05-07 13:14 36.89566 30.80576 192 ft 7 kts 97°
2026-05-07 13:14 36.89561 30.80627 198 ft 5 kts 97°
2026-05-07 13:14 36.89562 30.80665 191 ft 4 kts 72°
2026-05-07 13:15 36.89610 30.80698 191 ft 12 kts
2026-05-07 13:15 36.89702 30.80710 198 ft 13 kts
2026-05-07 13:15 36.89781 30.80721 202 ft 10 kts
2026-05-07 13:15 36.89846 30.80730 202 ft 8 kts
2026-05-07 13:16 36.89899 30.80737 192 ft 7 kts
2026-05-07 13:16 36.89950 30.80744 194 ft 8 kts
2026-05-07 13:16 36.90009 30.80752 196 ft 9 kts
2026-05-07 13:16 36.90072 30.80760 192 ft 8 kts
2026-05-07 13:17 36.90124 30.80768 203 ft 8 kts
2026-05-07 13:17 36.90188 30.80777 205 ft 10 kts
2026-05-07 13:17 36.90250 30.80785 204 ft 8 kts
2026-05-07 13:17 36.90304 30.80792 197 ft 10 kts
2026-05-07 13:18 36.90380 30.80802 202 ft 11 kts
2026-05-07 13:18 36.90447 30.80811 205 ft 9 kts
2026-05-07 13:18 36.90502 30.80819 191 ft 8 kts
2026-05-07 13:18 36.90563 30.80828 191 ft 11 kts
2026-05-07 13:19 36.90649 30.80840 191 ft 13 kts
2026-05-07 13:19 36.90728 30.80850 195 ft 10 kts
2026-05-07 13:19 36.90792 30.80859 199 ft 8 kts
2026-05-07 13:19 36.90844 30.80866 199 ft 7 kts
2026-05-07 13:20 36.90891 30.80872 195 ft 9 kts
2026-05-07 13:20 36.90956 30.80881 194 ft 8 kts
2026-05-07 13:20 36.91008 30.80888 200 ft 7 kts
2026-05-07 13:20 36.91058 30.80895 202 ft 7 kts
2026-05-07 13:21 36.91110 30.80910 191 ft 11 kts 30°
2026-05-07 13:21 36.91132 30.81006 199 ft 12 kts 93°
2026-05-07 13:21 36.91123 30.81101 192 ft 10 kts 118°
2026-05-07 13:21 36.91066 30.81133 196 ft 8 kts 184°
2026-05-07 13:22 36.91046 30.81131 194 ft 0 kts 186°
2026-05-07 13:22 36.90860 30.81107 201 ft 61 kts 186°
2026-05-07 13:22 36.90230 30.81017 197 ft 119 kts 186°
2026-05-07 13:22 36.89242 30.80880 192 ft 165 kts 186°
2026-05-07 13:23 36.88069 30.80787 722 ft 164 kts 177°
2026-05-07 13:23 36.86910 30.80982 1273 ft 170 kts 174°
2026-05-07 13:23 36.85717 30.81197 1589 ft 183 kts 172°
2026-05-07 13:23 36.84388 30.81454 1779 ft 204 kts 171°
2026-05-07 13:24 36.82903 30.81739 1937 ft 223 kts 172°
2026-05-07 13:24 36.81373 30.82018 2487 ft 223 kts 171°
2026-05-07 13:24 36.79844 30.82343 3022 ft 223 kts 163°
2026-05-07 13:24 36.78369 30.83133 3220 ft 242 kts 153°
2026-05-07 13:25 36.76784 30.84113 3399 ft 262 kts 153°
2026-05-07 13:25 36.75225 30.85290 3855 ft 269 kts 136°
2026-05-07 13:25 36.74092 30.87138 4398 ft 272 kts 113°
2026-05-07 13:25 36.73616 30.89402 4972 ft 272 kts 93°
2026-05-07 13:26 36.73437 30.91761 5571 ft 274 kts 93°
2026-05-07 13:26 36.73252 30.94131 6187 ft 275 kts 93°
2026-05-07 13:26 36.73064 30.96519 6790 ft 277 kts 92°
2026-05-07 13:26 36.72873 30.98923 7363 ft 280 kts 93°
2026-05-07 13:27 36.72679 31.01342 7927 ft 282 kts 93°
2026-05-07 13:27 36.72481 31.03795 8467 ft 285 kts 93°
2026-05-07 13:27 36.72282 31.06237 9032 ft 288 kts 93°
2026-05-07 13:27 36.72076 31.08729 9586 ft 290 kts 93°
2026-05-07 13:28 36.71874 31.11241 10134 ft 292 kts 91°
2026-05-07 13:28 36.71945 31.13784 10455 ft 301 kts 82°
2026-05-07 13:28 36.72170 31.16454 10584 ft 318 kts 81°
2026-05-07 13:28 36.72419 31.19258 10712 ft 334 kts 82°
2026-05-07 13:29 36.72681 31.22206 10838 ft 350 kts 82°
2026-05-07 13:29 36.72950 31.25283 10959 ft 365 kts 82°
2026-05-07 13:29 36.73225 31.28498 11084 ft 380 kts 82°
2026-05-07 13:29 36.73506 31.31832 11233 ft 392 kts 82°
2026-05-07 13:30 36.73809 31.35235 11583 ft 397 kts 79°
2026-05-07 13:30 36.74445 31.38588 11997 ft 398 kts 70°
2026-05-07 13:30 36.75339 31.41859 12415 ft 401 kts 69°
2026-05-07 13:30 36.76227 31.45105 12832 ft 405 kts 69°
2026-05-07 13:31 36.77141 31.48464 13253 ft 408 kts 69°
2026-05-07 13:31 36.78053 31.51824 13671 ft 411 kts 69°
2026-05-07 13:31 36.78975 31.55218 14052 ft 415 kts 69°
2026-05-07 13:31 36.79902 31.58638 14405 ft 418 kts 69°
2026-05-07 13:32 36.80833 31.62082 14780 ft 420 kts 69°
2026-05-07 13:32 36.81769 31.65547 15143 ft 423 kts 69°
2026-05-07 13:32 36.82711 31.69034 15494 ft 425 kts 69°
2026-05-07 13:32 36.83660 31.72543 15854 ft 428 kts 69°
2026-05-07 13:33 36.84612 31.76077 16225 ft 431 kts 69°
2026-05-07 13:33 36.85572 31.79633 16595 ft 433 kts 69°
2026-05-07 13:33 36.86536 31.83212 16939 ft 436 kts 69°
2026-05-07 13:33 36.87506 31.86816 17298 ft 439 kts 69°
2026-05-07 13:34 36.88477 31.90438 17639 ft 442 kts 69°
2026-05-07 13:34 36.89912 31.97966 18327 ft 452 kts 83°
2026-05-07 13:34 36.89960 32.01901 18628 ft 456 kts 90°
2026-05-07 13:35 36.89852 32.05878 18920 ft 458 kts 90°
2026-05-07 13:35 36.89754 32.09811 19200 ft 461 kts 90°
2026-05-07 13:35 36.89659 32.13823 19462 ft 463 kts 89°
2026-05-07 13:35 36.89566 32.17848 19767 ft 465 kts 89°
2026-05-07 13:36 36.89470 32.21903 20052 ft 468 kts 89°
2026-05-07 13:36 36.89369 32.25971 20331 ft 470 kts 89°
2026-05-07 13:36 36.89263 32.30061 20594 ft 472 kts 89°
2026-05-07 13:36 36.89154 32.34167 20854 ft 475 kts 89°
2026-05-07 13:37 36.89045 32.38296 21130 ft 477 kts 89°
2026-05-07 13:37 36.88934 32.42441 21395 ft 479 kts 89°
2026-05-07 13:37 36.88818 32.46608 21670 ft 481 kts 89°
2026-05-07 13:37 36.88700 32.50793 21933 ft 483 kts 89°
2026-05-07 13:38 36.88584 32.54996 22191 ft 485 kts 89°
2026-05-07 13:38 36.88466 32.59223 22459 ft 487 kts 89°
2026-05-07 13:38 36.88350 32.63462 22701 ft 489 kts 89°
2026-05-07 13:38 36.88235 32.67717 22921 ft 491 kts 89°
2026-05-07 13:39 36.88114 32.71990 23158 ft 493 kts 89°
2026-05-07 13:39 36.87987 32.76279 23384 ft 496 kts 89°
2026-05-07 13:39 36.87855 32.80589 23659 ft 497 kts 89°
2026-05-07 13:39 36.87724 32.84844 23997 ft 497 kts 88°
2026-05-07 13:40 36.87591 32.89146 24331 ft 496 kts 88°
2026-05-07 13:40 36.87459 32.93446 24653 ft 495 kts 88°
2026-05-07 13:40 36.87330 32.97739 24951 ft 495 kts 88°
2026-05-07 13:40 36.87200 33.02019 25254 ft 494 kts 88°
2026-05-07 13:41 36.87066 33.06320 25522 ft 494 kts 88°
2026-05-07 13:41 36.86930 33.10605 25851 ft 494 kts 88°
2026-05-07 13:41 36.86790 33.14887 26172 ft 493 kts 88°
2026-05-07 13:41 36.86696 33.19153 26428 ft 490 kts 83°
2026-05-07 13:42 36.87059 33.23345 26701 ft 483 kts 73°
2026-05-07 13:42 36.87965 33.27344 27006 ft 475 kts 63°
2026-05-07 13:42 36.89359 33.31034 27325 ft 466 kts 54°
2026-05-07 13:42 36.91169 33.34347 27631 ft 458 kts 45°
2026-05-07 13:43 36.93329 33.37218 27927 ft 450 kts 36°
2026-05-07 13:43 36.95641 33.39853 28241 ft 449 kts 36°
2026-05-07 13:43 36.97943 33.42487 28578 ft 448 kts 36°
2026-05-07 13:43 37.00202 33.45078 28920 ft 446 kts 36°
2026-05-07 13:44 37.02483 33.47699 29248 ft 445 kts 36°
2026-05-07 13:44 37.04548 33.50077 29582 ft 443 kts 36°
2026-05-07 13:44 37.06785 33.52629 29885 ft 442 kts 36°
2026-05-07 13:44 37.09048 33.55226 30206 ft 441 kts 36°
2026-05-07 13:45 37.11297 33.57828 30448 ft 439 kts 36°
2026-05-07 13:45 37.13539 33.60428 30701 ft 439 kts 36°
2026-05-07 13:45 37.15776 33.63021 30907 ft 438 kts 36°
2026-05-07 13:45 37.18014 33.65612 31099 ft 438 kts 36°
2026-05-07 13:46 37.20259 33.68205 31171 ft 441 kts 36°
2026-05-07 13:46 37.24782 33.73428 31169 ft 443 kts 36°
2026-05-07 13:47 37.29275 33.78644 31173 ft 442 kts 36°
2026-05-07 13:47 37.33788 33.83896 31175 ft 442 kts 36°
2026-05-07 13:48 37.38296 33.89152 31176 ft 442 kts 36°
2026-05-07 13:48 37.42800 33.94398 31173 ft 441 kts 36°
2026-05-07 13:49 37.47304 33.99653 31177 ft 441 kts 36°
2026-05-07 13:49 37.51795 34.04913 31178 ft 441 kts 36°
2026-05-07 13:50 37.56290 34.10185 31177 ft 441 kts 36°
2026-05-07 13:50 37.60784 34.15469 31171 ft 442 kts 36°
2026-05-07 13:51 37.65275 34.20765 31158 ft 442 kts 36°
2026-05-07 13:51 37.69729 34.26023 31143 ft 442 kts 36°
2026-05-07 13:52 37.74220 34.31323 31132 ft 442 kts 36°
2026-05-07 13:52 37.78703 34.36638 31119 ft 442 kts 36°
2026-05-07 13:53 37.83183 34.41964 31115 ft 442 kts 36°
2026-05-07 13:53 37.87668 34.47297 31108 ft 442 kts 36°
2026-05-07 13:54 37.92148 34.52632 31112 ft 443 kts 37°
2026-05-07 13:54 37.96636 34.57974 31124 ft 443 kts 36°
2026-05-07 13:55 38.01129 34.63313 31128 ft 443 kts 37°
2026-05-07 13:55 38.05594 34.68635 31143 ft 444 kts 37°
2026-05-07 13:56 38.10095 34.74014 31151 ft 444 kts 37°
2026-05-07 13:56 38.14595 34.79398 31158 ft 445 kts 37°
2026-05-07 13:57 38.19090 34.84802 31155 ft 445 kts 37°
2026-05-07 13:57 38.23579 34.90209 31159 ft 445 kts 37°
2026-05-07 13:58 38.28081 34.95618 31169 ft 445 kts 37°
2026-05-07 13:58 38.32549 35.00979 31169 ft 444 kts 37°
2026-05-07 13:59 38.37052 35.06383 31165 ft 444 kts 37°
2026-05-07 13:59 38.41665 35.11580 31165 ft 441 kts 34°
2026-05-07 14:00 38.46399 35.16541 31173 ft 440 kts 33°
2026-05-07 14:00 38.51130 35.21511 31172 ft 440 kts 34°
2026-05-07 14:01 38.55677 35.26719 31185 ft 444 kts 38°
2026-05-07 14:01 38.60005 35.32369 31184 ft 445 kts 40°
2026-05-07 14:02 38.64295 35.38061 31180 ft 444 kts 39°
2026-05-07 14:02 38.68635 35.43649 31183 ft 442 kts 39°
2026-05-07 14:03 38.73001 35.49195 31180 ft 442 kts 39°
2026-05-07 14:03 38.77351 35.54746 31181 ft 441 kts 39°
2026-05-07 14:04 38.81677 35.60306 31184 ft 440 kts 39°
2026-05-07 14:04 38.85984 35.65861 31186 ft 439 kts 39°
2026-05-07 14:05 38.90289 35.71420 31188 ft 438 kts 39°
2026-05-07 14:05 38.94585 35.76963 31188 ft 437 kts 39°
2026-05-07 14:06 38.98896 35.82386 31191 ft 436 kts 38°
2026-05-07 14:06 39.03280 35.87776 31188 ft 436 kts 38°
2026-05-07 14:07 39.07649 35.93167 31180 ft 436 kts 38°
2026-05-07 14:07 39.12005 35.98596 31169 ft 435 kts 38°
2026-05-07 14:08 39.16337 36.04050 31163 ft 436 kts 39°
2026-05-07 14:08 39.20568 36.09670 31162 ft 437 kts 41°
2026-05-07 14:09 39.24716 36.15342 31156 ft 438 kts 41°
2026-05-07 14:09 39.28908 36.21051 31155 ft 438 kts 41°
2026-05-07 14:10 39.33121 36.26741 31154 ft 439 kts 41°
2026-05-07 14:10 39.37349 36.32434 31151 ft 439 kts 41°
2026-05-07 14:11 39.41566 36.38134 31154 ft 439 kts 41°
2026-05-07 14:11 39.45783 36.43860 31150 ft 439 kts 42°
2026-05-07 14:12 39.49998 36.49599 31144 ft 440 kts 42°
2026-05-07 14:12 39.54182 36.55306 31138 ft 440 kts 42°
2026-05-07 14:13 39.58394 36.61062 31146 ft 440 kts 43°
2026-05-07 14:13 39.62597 36.66828 31163 ft 440 kts 43°
2026-05-07 14:14 39.66797 36.72593 31180 ft 440 kts 43°
2026-05-07 14:14 39.71000 36.78372 31199 ft 440 kts 43°
2026-05-07 14:15 39.75194 36.84154 31212 ft 440 kts 43°
2026-05-07 14:15 39.79215 36.90154 31215 ft 444 kts 52°
2026-05-07 14:16 39.82342 36.97126 31217 ft 446 kts 57°
2026-05-07 14:16 39.85392 37.04162 31208 ft 446 kts 57°
2026-05-07 14:17 39.88421 37.11155 31189 ft 446 kts 57°
2026-05-07 14:17 39.91464 37.18196 31168 ft 446 kts 57°
2026-05-07 14:18 39.94508 37.25246 31147 ft 447 kts 57°
2026-05-07 14:18 39.97546 37.32308 31124 ft 447 kts 57°
2026-05-07 14:19 40.00583 37.39379 31128 ft 447 kts 57°
2026-05-07 14:19 40.03615 37.46466 31112 ft 447 kts 57°
2026-05-07 14:20 40.06625 37.53513 31128 ft 447 kts 58°
2026-05-07 14:20 40.09652 37.60612 31127 ft 448 kts 58°
2026-05-07 14:21 40.12695 37.67708 31127 ft 448 kts 58°
2026-05-07 14:21 40.15739 37.74806 31134 ft 448 kts 58°
2026-05-07 14:22 40.18774 37.81915 31141 ft 448 kts 58°
2026-05-07 14:22 40.21293 37.87836 31143 ft 448 kts 58°
2026-05-07 14:23 40.24321 37.94968 31134 ft 448 kts 58°
2026-05-07 14:23 40.27832 38.03266 31145 ft 449 kts 58°
2026-05-07 14:24 40.30349 38.09216 31148 ft 449 kts 58°
2026-05-07 14:24 40.33365 38.16382 31161 ft 450 kts 59°
2026-05-07 14:25 40.36301 38.23621 31165 ft 450 kts 60°
2026-05-07 14:25 40.39207 38.30902 31170 ft 450 kts 59°
2026-05-07 14:26 40.42262 38.38071 31180 ft 450 kts 58°
2026-05-07 14:26 40.45387 38.45198 31179 ft 450 kts 58°
2026-05-07 14:27 40.48473 38.52300 31176 ft 451 kts 58°
2026-05-07 14:27 40.51540 38.59491 31180 ft 451 kts 59°
2026-05-07 14:28 40.54520 38.66762 31177 ft 452 kts 60°
2026-05-07 14:28 40.57455 38.74060 31182 ft 452 kts 60°
2026-05-07 14:29 40.60408 38.81362 31178 ft 452 kts 59°
2026-05-07 14:29 40.63373 38.88654 31173 ft 452 kts 60°
2026-05-07 14:30 40.66315 38.95907 31173 ft 452 kts 60°
2026-05-07 14:30 40.69262 39.03218 31170 ft 452 kts 60°
2026-05-07 14:31 40.72188 39.10540 31170 ft 452 kts 60°
2026-05-07 14:31 40.75119 39.17883 31169 ft 452 kts 60°
2026-05-07 14:32 40.78053 39.25213 31167 ft 452 kts 60°
2026-05-07 14:32 40.80983 39.32561 31173 ft 452 kts 60°
2026-05-07 14:33 40.83906 39.39922 31180 ft 453 kts 60°
2026-05-07 14:33 40.86811 39.47243 31189 ft 453 kts 60°
2026-05-07 14:34 40.89725 39.54620 31198 ft 453 kts 60°
2026-05-07 14:34 40.92640 39.62011 31201 ft 454 kts 61°
2026-05-07 14:35 40.95553 39.69414 31208 ft 454 kts 61°
2026-05-07 14:35 40.98466 39.76830 31206 ft 454 kts 61°
2026-05-07 14:36 41.01298 39.84316 31208 ft 455 kts 63°
2026-05-07 14:36 41.03897 39.91958 31198 ft 455 kts 65°
2026-05-07 14:37 41.06447 39.99640 31198 ft 456 kts 65°
2026-05-07 14:37 41.10349 40.11117 31194 ft 456 kts 64°
2026-05-07 14:38 41.12953 40.18725 31183 ft 456 kts 64°
2026-05-07 14:38 41.15559 40.26388 31183 ft 456 kts 65°
2026-05-07 14:39 41.18158 40.34074 31181 ft 456 kts 65°
2026-05-07 14:39 41.20749 40.41762 31176 ft 457 kts 65°
2026-05-07 14:40 41.23341 40.49464 31181 ft 457 kts 65°
2026-05-07 14:40 41.25927 40.57176 31182 ft 457 kts 65°
2026-05-07 14:41 41.28500 40.64852 31181 ft 457 kts 65°
2026-05-07 14:41 41.31087 40.72582 31180 ft 457 kts 65°
2026-05-07 14:42 41.33663 40.80319 31178 ft 458 kts 66°
2026-05-07 14:42 41.36232 40.88062 31182 ft 458 kts 66°
2026-05-07 14:43 41.38804 40.95826 31181 ft 458 kts 66°
2026-05-07 14:43 41.41374 41.03593 31183 ft 459 kts 66°
2026-05-07 14:44 41.43934 41.11386 31188 ft 459 kts 66°
2026-05-07 14:44 41.46472 41.19135 31193 ft 459 kts 66°
2026-05-07 14:45 41.49025 41.26949 31186 ft 460 kts 66°
2026-05-07 14:45 41.51584 41.34776 31183 ft 461 kts 66°
2026-05-07 14:46 41.54141 41.42628 31182 ft 462 kts 66°
2026-05-07 14:46 41.56729 41.50477 31177 ft 462 kts 66°
2026-05-07 14:47 41.59424 41.58278 31179 ft 463 kts 65°
2026-05-07 14:47 41.62127 41.66088 31175 ft 463 kts 65°
2026-05-07 14:48 41.64780 41.73865 31179 ft 463 kts 66°
2026-05-07 14:48 41.67439 41.81709 31188 ft 463 kts 66°
2026-05-07 14:49 41.70095 41.89577 31191 ft 464 kts 66°
2026-05-07 14:49 41.72751 41.97438 31190 ft 464 kts 66°
2026-05-07 14:50 41.75400 42.05312 31181 ft 464 kts 66°
2026-05-07 14:50 41.78046 42.13210 31175 ft 464 kts 67°
2026-05-07 14:51 41.80673 42.21059 31176 ft 465 kts 67°
2026-05-07 14:51 41.83320 42.28974 31175 ft 465 kts 67°
2026-05-07 14:52 41.85959 42.36897 31176 ft 466 kts 67°
2026-05-07 14:52 41.88594 42.44834 31180 ft 465 kts 67°
2026-05-07 14:53 41.91220 42.52770 31179 ft 465 kts 67°
2026-05-07 14:53 41.93848 42.60715 31174 ft 465 kts 67°
2026-05-07 14:54 41.96462 42.68667 31174 ft 465 kts 67°
2026-05-07 14:54 41.99062 42.76617 31172 ft 465 kts 67°
2026-05-07 14:55 42.01643 42.84523 31167 ft 465 kts 67°
2026-05-07 14:55 42.04236 42.92482 31170 ft 465 kts 67°
2026-05-07 14:56 42.06613 43.00552 31165 ft 463 kts 76°
2026-05-07 14:56 42.07880 43.09027 31161 ft 462 kts 81°
2026-05-07 14:57 42.09068 43.17532 31168 ft 463 kts 81°
2026-05-07 14:57 42.10262 43.26052 31161 ft 463 kts 81°
2026-05-07 14:58 42.11464 43.34579 31161 ft 464 kts 81°
2026-05-07 14:58 42.12647 43.43124 31155 ft 464 kts 81°
2026-05-07 14:59 42.13809 43.51621 31155 ft 464 kts 81°
2026-05-07 14:59 42.14978 43.60179 31153 ft 465 kts 81°
2026-05-07 15:00 42.16145 43.68766 31152 ft 466 kts 81°
2026-05-07 15:00 42.17298 43.77358 31152 ft 466 kts 81°
2026-05-07 15:01 42.18462 43.85970 31145 ft 467 kts 81°
2026-05-07 15:01 42.19622 43.94586 31151 ft 468 kts 81°
2026-05-07 15:02 42.20759 44.03167 31156 ft 468 kts 81°
2026-05-07 15:02 42.21903 44.11855 31344 ft 472 kts 81°
2026-05-07 15:03 42.22475 44.16215 31544 ft 472 kts 81°
2026-05-07 15:03 42.23045 44.20587 31751 ft 473 kts 82°
2026-05-07 15:03 42.23613 44.24960 31946 ft 474 kts 81°
2026-05-07 15:03 42.24184 44.29350 32134 ft 475 kts 81°
2026-05-07 15:04 42.24754 44.33749 32328 ft 476 kts 82°
2026-05-07 15:04 42.25323 44.38149 32527 ft 477 kts 82°
2026-05-07 15:04 42.25893 44.42563 32718 ft 478 kts 82°
2026-05-07 15:04 42.26464 44.46988 32878 ft 479 kts 81°
2026-05-07 15:05 42.27036 44.51413 33059 ft 479 kts 82°
2026-05-07 15:05 42.27600 44.55798 33169 ft 481 kts 82°
2026-05-07 15:05 42.28731 44.64689 33177 ft 481 kts 82°
2026-05-07 15:06 42.29857 44.73600 33171 ft 481 kts 82°
2026-05-07 15:06 42.30976 44.82513 33177 ft 482 kts 82°
2026-05-07 15:07 42.32090 44.91444 33177 ft 482 kts 82°
2026-05-07 15:07 42.33193 45.00374 33165 ft 482 kts 82°
2026-05-07 15:08 42.34292 45.09308 33165 ft 482 kts 82°
2026-05-07 15:08 42.35373 45.18186 33161 ft 483 kts 82°
2026-05-07 15:09 42.36466 45.27139 33153 ft 483 kts 82°
2026-05-07 15:09 42.37555 45.36107 33153 ft 483 kts 82°
2026-05-07 15:10 42.38628 45.45080 33159 ft 484 kts 82°
2026-05-07 15:10 42.39695 45.54071 33163 ft 484 kts 82°
2026-05-07 15:11 42.40752 45.63065 33158 ft 484 kts 82°
2026-05-07 15:11 42.41810 45.72074 33166 ft 485 kts 83°
2026-05-07 15:12 42.43262 45.80923 33170 ft 487 kts 74°
2026-05-07 15:12 42.45208 45.89695 33169 ft 487 kts 74°
2026-05-07 15:13 42.47139 45.98498 33169 ft 488 kts 75°
2026-05-07 15:13 42.49071 46.07310 33171 ft 488 kts 75°
2026-05-07 15:14 42.50996 46.16148 33168 ft 489 kts 75°
2026-05-07 15:14 42.52918 46.24999 33167 ft 490 kts 75°
2026-05-07 15:15 42.54831 46.33860 33160 ft 490 kts 75°
2026-05-07 15:15 42.56748 46.42738 33165 ft 491 kts 75°
2026-05-07 15:16 42.58664 46.51638 33163 ft 491 kts 75°
2026-05-07 15:16 42.60549 46.60487 33160 ft 492 kts 75°
2026-05-07 15:17 42.62452 46.69416 33154 ft 493 kts 75°
2026-05-07 15:17 42.64346 46.78356 33147 ft 493 kts 75°
2026-05-07 15:18 42.66233 46.87313 33136 ft 493 kts 75°
2026-05-07 15:18 42.68107 46.96282 33135 ft 494 kts 75°
2026-05-07 15:19 42.69983 47.05269 33127 ft 494 kts 75°
2026-05-07 15:19 42.71853 47.14257 33114 ft 494 kts 75°
2026-05-07 15:20 42.73712 47.23256 33104 ft 494 kts 75°
2026-05-07 15:20 42.75566 47.32255 33088 ft 494 kts 75°
2026-05-07 15:21 42.77405 47.41210 33078 ft 495 kts 76°
2026-05-07 15:21 42.79244 47.50233 33072 ft 495 kts 76°
2026-05-07 15:22 42.81080 47.59271 33070 ft 495 kts 74°
2026-05-07 15:22 42.83908 47.67800 33069 ft 496 kts 56°
2026-05-07 15:23 42.87910 47.75443 33075 ft 496 kts 53°
2026-05-07 15:23 42.91941 47.83078 33079 ft 496 kts 53°
2026-05-07 15:24 42.95949 47.90723 33077 ft 495 kts 54°
2026-05-07 15:24 42.99954 47.98371 33074 ft 495 kts 53°
2026-05-07 15:25 43.03922 48.05967 33066 ft 494 kts 54°
2026-05-07 15:25 43.07914 48.13611 33069 ft 494 kts 54°
2026-05-07 15:26 43.11902 48.21269 33070 ft 494 kts 54°
2026-05-07 15:26 43.15884 48.28940 33067 ft 494 kts 54°
2026-05-07 15:27 43.19855 48.36609 33067 ft 494 kts 54°
2026-05-07 15:27 43.23839 48.44274 33065 ft 493 kts 52°
2026-05-07 15:28 43.28136 48.51602 33068 ft 493 kts 48°
2026-05-07 15:28 43.32637 48.58698 33065 ft 493 kts 48°
2026-05-07 15:29 43.37102 48.65836 33064 ft 493 kts 49°
2026-05-07 15:29 43.41457 48.73026 33064 ft 493 kts 50°
2026-05-07 15:30 43.45809 48.80304 33059 ft 493 kts 50°
2026-05-07 15:30 43.50173 48.87581 33061 ft 493 kts 50°
2026-05-07 15:31 43.54546 48.94851 33058 ft 493 kts 50°
2026-05-07 15:31 43.58917 49.02126 33053 ft 493 kts 50°
2026-05-07 15:32 43.62543 49.08185 33052 ft 493 kts 50°
2026-05-07 15:32 43.66900 49.15491 33049 ft 493 kts 50°
2026-05-07 15:33 43.71959 49.23983 33050 ft 492 kts 50°
2026-05-07 15:33 43.76309 49.31302 33049 ft 492 kts 50°
2026-05-07 15:34 43.80390 49.36792 33041 ft 488 kts 30°
2026-05-07 15:34 43.83367 49.38834 33033 ft 482 kts 15°
2026-05-07 15:34 43.86608 49.39842 33030 ft 475 kts
2026-05-07 15:35 43.89879 49.39776 33021 ft 467 kts 347°
2026-05-07 15:35 43.92997 49.38677 33011 ft 459 kts 333°
2026-05-07 15:35 43.95793 49.36639 33006 ft 451 kts 320°
2026-05-07 15:35 43.98141 49.33812 33004 ft 444 kts 309°
2026-05-07 15:36 44.02322 49.27487 33005 ft 445 kts 309°
2026-05-07 15:36 44.06518 49.21134 33000 ft 446 kts 309°
2026-05-07 15:37 44.10889 49.14983 32997 ft 451 kts 318°
2026-05-07 15:37 44.16354 49.10611 32993 ft 458 kts 334°
2026-05-07 15:38 44.22263 49.07226 32992 ft 459 kts 334°
2026-05-07 15:38 44.28172 49.03815 33106 ft 460 kts 335°
2026-05-07 15:39 44.31091 49.02117 33325 ft 461 kts 335°
2026-05-07 15:39 44.34087 49.00370 33542 ft 461 kts 335°
2026-05-07 15:39 44.37004 48.98671 33742 ft 461 kts 335°
2026-05-07 15:39 44.39966 48.96949 33945 ft 461 kts 335°
2026-05-07 15:40 44.45890 48.93498 33989 ft 461 kts 335°
2026-05-07 15:40 44.51809 48.90042 33986 ft 461 kts 335°
2026-05-07 15:41 44.57722 48.86583 33987 ft 461 kts 335°
2026-05-07 15:41 44.63639 48.83116 33983 ft 461 kts 335°
2026-05-07 15:42 44.69563 48.79651 33983 ft 461 kts 335°
2026-05-07 15:42 44.75474 48.76160 33980 ft 461 kts 335°
2026-05-07 15:43 44.81388 48.72654 33981 ft 461 kts 335°
2026-05-07 15:43 44.87302 48.69158 33978 ft 461 kts 335°
2026-05-07 15:44 44.93178 48.65680 33980 ft 461 kts 335°
2026-05-07 15:44 44.99080 48.62172 33980 ft 460 kts 335°
2026-05-07 15:45 45.04979 48.58653 33975 ft 460 kts 335°
2026-05-07 15:45 45.10872 48.55136 33972 ft 459 kts 335°
2026-05-07 15:46 45.19693 48.49843 33965 ft 459 kts 336°
2026-05-07 15:47 45.25574 48.46316 33958 ft 459 kts 336°
2026-05-07 15:47 45.31449 48.42789 33950 ft 458 kts 336°
2026-05-07 15:48 45.37320 48.39251 33949 ft 458 kts 336°
2026-05-07 15:48 45.43145 48.35724 33947 ft 458 kts 337°
2026-05-07 15:49 45.49001 48.32170 33949 ft 457 kts 337°
2026-05-07 15:49 45.54850 48.28619 33942 ft 457 kts 337°
2026-05-07 15:50 45.60689 48.25058 33939 ft 456 kts 338°
2026-05-07 15:50 45.66527 48.21497 33940 ft 456 kts 338°
2026-05-07 15:51 45.72363 48.17930 33932 ft 456 kts 338°
2026-05-07 15:51 45.78198 48.14358 33931 ft 456 kts 338°
2026-05-07 15:52 45.84025 48.10789 33922 ft 456 kts 338°
2026-05-07 15:52 45.89816 48.07225 33918 ft 456 kts 338°
2026-05-07 15:53 45.95641 48.03623 33912 ft 456 kts 338°
2026-05-07 15:53 46.01467 48.00016 33916 ft 456 kts 338°
2026-05-07 15:54 46.07023 47.95625 33914 ft 459 kts 323°
2026-05-07 15:54 46.11375 47.88925 33915 ft 462 kts 304°
2026-05-07 15:55 46.14883 47.81166 33913 ft 462 kts 304°
2026-05-07 15:55 46.18390 47.73392 33906 ft 462 kts 304°
2026-05-07 15:56 46.21865 47.65651 33905 ft 463 kts 304°
2026-05-07 15:56 46.25362 47.57843 33906 ft 463 kts 304°
2026-05-07 15:57 46.28854 47.50039 33904 ft 463 kts 305°
2026-05-07 15:57 46.32351 47.42223 33907 ft 463 kts 304°
2026-05-07 15:58 46.35842 47.34394 33910 ft 463 kts 304°
2026-05-07 15:58 46.39327 47.26551 33912 ft 463 kts 304°
2026-05-07 15:59 46.42798 47.18694 33920 ft 463 kts 304°
2026-05-07 15:59 46.46247 47.10868 33919 ft 464 kts 304°
2026-05-07 16:00 46.49718 47.02982 33922 ft 464 kts 304°
2026-05-07 16:00 46.53188 46.95094 33933 ft 463 kts 304°
2026-05-07 16:01 46.56650 46.87203 33941 ft 463 kts 304°
2026-05-07 16:01 46.60098 46.79308 33941 ft 462 kts 304°
2026-05-07 16:02 46.63532 46.71412 33947 ft 461 kts 304°
2026-05-07 16:02 46.66951 46.63526 33960 ft 460 kts 304°
2026-05-07 16:03 46.70357 46.55646 33959 ft 459 kts 303°
2026-05-07 16:03 46.73734 46.47828 33968 ft 458 kts 303°
2026-05-07 16:04 46.77119 46.39969 33969 ft 457 kts 303°
2026-05-07 16:04 46.80494 46.32110 33970 ft 456 kts 303°
2026-05-07 16:05 46.83853 46.24253 33975 ft 456 kts 303°
2026-05-07 16:05 46.87202 46.16394 33981 ft 455 kts 303°
2026-05-07 16:06 46.90646 46.08631 33975 ft 454 kts 310°
2026-05-07 16:06 46.95228 46.02416 33974 ft 449 kts 328°
2026-05-07 16:07 47.00524 45.98400 33972 ft 447 kts 336°
2026-05-07 16:07 47.06155 45.94483 33976 ft 447 kts 336°
2026-05-07 16:08 47.11772 45.90542 33972 ft 447 kts 336°
2026-05-07 16:08 47.17345 45.86622 33974 ft 447 kts 336°
2026-05-07 16:09 47.22947 45.82673 33966 ft 447 kts 336°
2026-05-07 16:09 47.28548 45.78709 33965 ft 446 kts 336°
2026-05-07 16:10 47.34144 45.74740 33961 ft 446 kts 336°
2026-05-07 16:10 47.39740 45.70772 33967 ft 446 kts 336°
2026-05-07 16:11 47.45332 45.66804 33963 ft 446 kts 335°
2026-05-07 16:11 47.50921 45.62828 33961 ft 446 kts 335°
2026-05-07 16:12 47.56509 45.58843 33960 ft 446 kts 335°
2026-05-07 16:12 47.62089 45.54838 33964 ft 446 kts 335°
2026-05-07 16:13 47.67672 45.50824 33963 ft 446 kts 335°
2026-05-07 16:13 47.73220 45.46829 33960 ft 446 kts 335°
2026-05-07 16:14 47.78803 45.42671 33953 ft 447 kts 329°
2026-05-07 16:14 47.83631 45.36944 33959 ft 449 kts 319°
2026-05-07 16:15 47.88250 45.30692 33961 ft 449 kts 319°
2026-05-07 16:15 47.92875 45.24432 33963 ft 449 kts 319°
2026-05-07 16:16 47.97494 45.18172 33963 ft 449 kts 319°
2026-05-07 16:16 48.02128 45.11906 33960 ft 449 kts 322°
2026-05-07 16:17 48.07240 45.06594 33965 ft 448 kts 327°
2026-05-07 16:17 48.12418 45.01407 33968 ft 448 kts 327°
2026-05-07 16:18 48.17592 44.96205 33973 ft 448 kts 327°
2026-05-07 16:18 48.22760 44.90998 33975 ft 448 kts 327°
2026-05-07 16:19 48.27917 44.85777 33971 ft 447 kts 327°
2026-05-07 16:19 48.33038 44.80588 33977 ft 447 kts 327°
2026-05-07 16:20 48.38195 44.75347 33976 ft 447 kts 327°
2026-05-07 16:20 48.43343 44.70105 33979 ft 447 kts 327°
2026-05-07 16:21 48.48487 44.64863 33980 ft 446 kts 327°
2026-05-07 16:21 48.53628 44.59606 33987 ft 446 kts 327°
2026-05-07 16:22 48.58756 44.54340 33979 ft 446 kts 327°
2026-05-07 16:22 48.63897 44.49049 33975 ft 447 kts 327°
2026-05-07 16:23 48.69031 44.43742 33971 ft 447 kts 327°
2026-05-07 16:23 48.74132 44.38460 33967 ft 447 kts 327°
2026-05-07 16:24 48.79440 44.33617 33961 ft 445 kts 338°
2026-05-07 16:24 48.85225 44.30310 33960 ft 445 kts 341°
2026-05-07 16:25 48.91031 44.27050 33959 ft 445 kts 341°
2026-05-07 16:25 48.96839 44.23767 33962 ft 445 kts 341°
2026-05-07 16:26 49.02645 44.20463 33961 ft 446 kts 341°
2026-05-07 16:26 49.08457 44.17150 33958 ft 446 kts 341°
2026-05-07 16:27 49.14273 44.13823 33956 ft 446 kts 341°
2026-05-07 16:27 49.20093 44.10489 33959 ft 447 kts 341°
2026-05-07 16:28 49.25877 44.07164 33964 ft 447 kts 341°
2026-05-07 16:28 49.31703 44.03802 33959 ft 448 kts 341°
2026-05-07 16:29 49.37536 44.00445 33964 ft 448 kts 341°
2026-05-07 16:29 49.43369 43.97076 33966 ft 448 kts 341°
2026-05-07 16:30 49.49199 43.93703 33968 ft 448 kts 341°
2026-05-07 16:30 49.54830 43.89613 33971 ft 449 kts 333°
2026-05-07 16:31 49.60317 43.85007 33968 ft 449 kts 333°
2026-05-07 16:31 49.65805 43.80410 33968 ft 449 kts 333°
2026-05-07 16:32 49.71279 43.75800 33968 ft 449 kts 333°
2026-05-07 16:32 49.76739 43.71194 33968 ft 449 kts 333°
2026-05-07 16:33 49.82213 43.66564 33963 ft 449 kts 333°
2026-05-07 16:33 49.87695 43.61919 33967 ft 449 kts 332°
2026-05-07 16:34 49.93166 43.57267 33965 ft 449 kts 332°
2026-05-07 16:34 49.98643 43.52608 33963 ft 449 kts 332°
2026-05-07 16:35 50.03192 43.48728 33965 ft 449 kts 332°
2026-05-07 16:35 50.08654 43.44044 33961 ft 449 kts 332°
2026-05-07 16:36 50.14134 43.39336 33965 ft 449 kts 332°
2026-05-07 16:36 50.19600 43.34635 33966 ft 449 kts 332°
2026-05-07 16:37 50.25074 43.29907 33967 ft 449 kts 332°
2026-05-07 16:37 50.30545 43.25169 33966 ft 449 kts 332°
2026-05-07 16:38 50.36004 43.20419 33972 ft 449 kts 332°
2026-05-07 16:38 50.41477 43.15663 33978 ft 449 kts 332°
2026-05-07 16:39 50.46905 43.10952 33978 ft 449 kts 332°
2026-05-07 16:39 50.52382 43.06169 33977 ft 450 kts 332°
2026-05-07 16:40 50.57840 43.01371 33978 ft 450 kts 332°
2026-05-07 16:40 50.63298 42.96566 33982 ft 450 kts 332°
2026-05-07 16:41 50.68765 42.91773 33981 ft 449 kts 335°
2026-05-07 16:41 50.74578 42.88255 33981 ft 448 kts 341°
2026-05-07 16:42 50.80463 42.84989 33984 ft 448 kts 341°
2026-05-07 16:42 50.86302 42.81716 33979 ft 448 kts 341°
2026-05-07 16:43 50.92178 42.78423 33982 ft 448 kts 341°
2026-05-07 16:43 50.98059 42.75122 33986 ft 448 kts 341°
2026-05-07 16:44 51.03939 42.71814 33986 ft 448 kts 341°
2026-05-07 16:44 51.09813 42.68497 33986 ft 448 kts 341°
2026-05-07 16:45 51.15692 42.65170 33986 ft 448 kts 341°
2026-05-07 16:45 51.21573 42.61840 33984 ft 448 kts 341°
2026-05-07 16:46 51.27440 42.58500 33985 ft 449 kts 341°
2026-05-07 16:46 51.33327 42.55141 33981 ft 449 kts 341°
2026-05-07 16:47 51.39205 42.51785 33984 ft 449 kts 340°
2026-05-07 16:47 51.45045 42.48425 33981 ft 449 kts 340°
2026-05-07 16:48 51.50921 42.45043 33984 ft 449 kts 340°
2026-05-07 16:48 51.56797 42.41654 33981 ft 449 kts 340°
2026-05-07 16:49 51.62674 42.38264 33984 ft 449 kts 341°
2026-05-07 16:49 51.68557 42.34866 33978 ft 449 kts 340°
2026-05-07 16:50 51.74432 42.31439 33979 ft 449 kts 340°
2026-05-07 16:50 51.80302 42.28011 33980 ft 449 kts 340°
2026-05-07 16:51 51.86165 42.24578 33975 ft 449 kts 340°
2026-05-07 16:51 51.92046 42.21135 33974 ft 449 kts 340°
2026-05-07 16:52 51.97878 42.17719 33975 ft 449 kts 340°
2026-05-07 16:52 52.03743 42.14258 33970 ft 449 kts 340°
2026-05-07 16:53 52.09608 42.10779 33970 ft 448 kts 340°
2026-05-07 16:53 52.15494 42.07420 33972 ft 448 kts 341°
2026-05-07 16:54 52.21412 42.04204 33969 ft 448 kts 342°
2026-05-07 16:54 52.27322 42.00989 33969 ft 448 kts 342°
2026-05-07 16:55 52.33227 41.97716 33967 ft 448 kts 341°
2026-05-07 16:55 52.39300 41.95703 33966 ft 446 kts 358°
2026-05-07 16:56 52.45461 41.95961 33964 ft 446 kts
2026-05-07 16:56 52.54776 41.96462 33960 ft 446 kts
2026-05-07 16:57 52.60988 41.96789 33962 ft 446 kts
2026-05-07 16:57 52.67184 41.96655 33955 ft 446 kts 351°
2026-05-07 16:58 52.73065 41.93533 33956 ft 446 kts 332°
2026-05-07 16:58 52.78102 41.87577 33945 ft 446 kts 321°
2026-05-07 16:59 52.82918 41.81085 33944 ft 447 kts 321°
2026-05-07 16:59 52.87738 41.74576 33948 ft 447 kts 321°
2026-05-07 17:00 52.92555 41.68055 33956 ft 447 kts 321°
2026-05-07 17:00 52.97371 41.61525 33946 ft 447 kts 321°
2026-05-07 17:01 53.02155 41.55007 33944 ft 447 kts 321°
2026-05-07 17:01 53.06950 41.48453 33948 ft 447 kts 320°
2026-05-07 17:02 53.11746 41.41862 33952 ft 447 kts 320°
2026-05-07 17:02 53.16536 41.35260 33952 ft 447 kts 320°
2026-05-07 17:03 53.21410 41.28841 33951 ft 446 kts 328°
2026-05-07 17:03 53.27045 41.24589 33946 ft 446 kts 343°
2026-05-07 17:04 53.32983 41.21575 33946 ft 446 kts 342°
2026-05-07 17:04 53.38918 41.18531 33940 ft 446 kts 342°
2026-05-07 17:05 53.44856 41.15484 33941 ft 446 kts 342°
2026-05-07 17:05 53.50797 41.12433 33941 ft 446 kts 342°
2026-05-07 17:06 53.56737 41.09370 33940 ft 446 kts 342°
2026-05-07 17:06 53.62670 41.06293 33938 ft 446 kts 342°
2026-05-07 17:07 53.68128 41.01635 33932 ft 444 kts 322°
2026-05-07 17:07 53.72318 40.94071 33936 ft 443 kts 302°
2026-05-07 17:08 53.74998 40.84742 33926 ft 442 kts 293°
2026-05-07 17:08 53.77451 40.75196 33923 ft 443 kts 293°
2026-05-07 17:09 53.79906 40.65633 33924 ft 443 kts 293°
2026-05-07 17:09 53.82355 40.56059 33922 ft 443 kts 293°
2026-05-07 17:10 53.84790 40.46492 33931 ft 443 kts 293°
2026-05-07 17:10 53.87212 40.36893 33928 ft 443 kts 293°
2026-05-07 17:11 53.89642 40.27291 33918 ft 443 kts 293°
2026-05-07 17:11 53.92057 40.17754 33926 ft 443 kts 293°
2026-05-07 17:12 53.94472 40.08126 33920 ft 443 kts 293°
2026-05-07 17:12 53.96875 39.98483 33924 ft 443 kts 293°
2026-05-07 17:13 53.99276 39.88833 33917 ft 443 kts 293°
2026-05-07 17:13 54.01673 39.79184 33917 ft 443 kts 293°
2026-05-07 17:14 54.04062 39.69517 33903 ft 440 kts 293°
2026-05-07 17:14 54.06414 39.59965 33897 ft 442 kts 293°
2026-05-07 17:15 54.08767 39.50344 33899 ft 443 kts 292°
2026-05-07 17:15 54.11129 39.40638 33901 ft 443 kts 292°
2026-05-07 17:16 54.13483 39.30930 33911 ft 442 kts 292°
2026-05-07 17:16 54.14654 39.26096 33493 ft 441 kts 292°
2026-05-07 17:16 54.15829 39.21233 31737 ft 448 kts 292°
2026-05-07 17:17 54.17020 39.16269 30266 ft 454 kts 292°
2026-05-07 17:17 54.18211 39.11293 29436 ft 455 kts 292°
2026-05-07 17:17 54.19406 39.06298 28544 ft 452 kts 292°
2026-05-07 17:17 54.20577 39.01407 27738 ft 434 kts 293°
2026-05-07 17:18 54.21887 38.96933 27451 ft 412 kts 301°
2026-05-07 17:18 54.23475 38.93020 27190 ft 402 kts 309°
2026-05-07 17:18 54.25368 38.89545 26921 ft 396 kts 317°
2026-05-07 17:18 54.27506 38.86611 26660 ft 393 kts 325°
2026-05-07 17:19 54.29860 38.84242 26409 ft 392 kts 333°
2026-05-07 17:19 54.32311 38.82184 26153 ft 391 kts 333°
2026-05-07 17:19 54.34743 38.80130 25931 ft 389 kts 333°
2026-05-07 17:19 54.37165 38.78067 25893 ft 388 kts 332°
2026-05-07 17:20 54.39580 38.75995 25897 ft 389 kts 332°
2026-05-07 17:20 54.41999 38.73915 25898 ft 389 kts 332°
2026-05-07 17:20 54.44418 38.71831 25898 ft 389 kts 332°
2026-05-07 17:20 54.46831 38.69751 25898 ft 389 kts 332°
2026-05-07 17:21 54.49247 38.67668 25896 ft 389 kts 332°
2026-05-07 17:21 54.51666 38.65583 25895 ft 388 kts 332°
2026-05-07 17:21 54.54051 38.63524 25895 ft 388 kts 332°
2026-05-07 17:21 54.56465 38.61436 25894 ft 388 kts 332°
2026-05-07 17:22 54.58874 38.59347 25893 ft 388 kts 332°
2026-05-07 17:22 54.61285 38.57258 25891 ft 388 kts 332°
2026-05-07 17:22 54.63703 38.55166 25893 ft 388 kts 332°
2026-05-07 17:22 54.66112 38.53072 25894 ft 388 kts 332°
2026-05-07 17:23 54.68528 38.50965 25893 ft 388 kts 332°
2026-05-07 17:23 54.70934 38.48863 25895 ft 389 kts 332°
2026-05-07 17:23 54.73350 38.46751 25896 ft 389 kts 332°
2026-05-07 17:23 54.75763 38.44645 25695 ft 388 kts 332°
2026-05-07 17:24 54.78178 38.42550 25518 ft 387 kts 332°
2026-05-07 17:24 54.80583 38.40469 25334 ft 386 kts 332°
2026-05-07 17:24 54.82986 38.38385 25158 ft 385 kts 330°
2026-05-07 17:24 54.85229 38.35935 24973 ft 381 kts 320°
2026-05-07 17:25 54.87187 38.32840 24795 ft 379 kts 312°
2026-05-07 17:25 54.89021 38.29561 24617 ft 378 kts 313°
2026-05-07 17:25 54.90852 38.26302 24445 ft 377 kts 313°
2026-05-07 17:25 54.92652 38.23105 24272 ft 376 kts 313°
2026-05-07 17:26 54.94479 38.19861 24100 ft 374 kts 313°
2026-05-07 17:26 54.96300 38.16624 23923 ft 373 kts 312°
2026-05-07 17:26 54.98117 38.13379 23572 ft 373 kts 312°
2026-05-07 17:26 54.99911 38.10157 23138 ft 369 kts 312°
2026-05-07 17:27 55.01686 38.06955 22762 ft 366 kts 311°
2026-05-07 17:27 55.03454 38.03766 22381 ft 364 kts 311°
2026-05-07 17:27 55.05207 38.00598 22007 ft 362 kts 311°
2026-05-07 17:27 55.06945 37.97451 21636 ft 359 kts 311°
2026-05-07 17:28 55.08671 37.94319 21270 ft 357 kts 311°
2026-05-07 17:28 55.10389 37.91203 20895 ft 355 kts 311°
2026-05-07 17:28 55.12097 37.88102 20617 ft 353 kts 311°
2026-05-07 17:28 55.13799 37.85013 20343 ft 352 kts 311°
2026-05-07 17:29 55.15491 37.81941 20079 ft 351 kts 311°
2026-05-07 17:29 55.17273 37.79044 19883 ft 351 kts 320°
2026-05-07 17:29 55.19259 37.76529 19877 ft 353 kts 321°
2026-05-07 17:29 55.21247 37.74013 19628 ft 352 kts 321°
2026-05-07 17:30 55.23196 37.71543 19391 ft 350 kts 321°
2026-05-07 17:30 55.25165 37.69033 19150 ft 349 kts 321°
2026-05-07 17:30 55.27123 37.66529 18911 ft 348 kts 320°
2026-05-07 17:30 55.29075 37.64029 18677 ft 347 kts 320°
2026-05-07 17:31 55.31016 37.61537 18451 ft 346 kts 320°
2026-05-07 17:31 55.32956 37.59042 18204 ft 345 kts 320°
2026-05-07 17:31 55.34883 37.56563 17943 ft 343 kts 320°
2026-05-07 17:31 55.36813 37.54079 17676 ft 342 kts 320°
2026-05-07 17:32 55.38729 37.51610 17411 ft 341 kts 320°
2026-05-07 17:32 55.40627 37.49159 17145 ft 339 kts 320°
2026-05-07 17:32 55.42528 37.46702 16883 ft 338 kts 320°
2026-05-07 17:32 55.43775 37.45088 16872 ft 336 kts 320°
2026-05-07 17:33 55.46298 37.41817 16887 ft 337 kts 320°
2026-05-07 17:33 55.48167 37.39399 16883 ft 325 kts 320°
2026-05-07 17:33 55.50056 37.37332 16889 ft 319 kts 331°
2026-05-07 17:33 55.52165 37.36072 16834 ft 324 kts 344°
2026-05-07 17:34 55.54380 37.35707 16574 ft 327 kts 356°
2026-05-07 17:34 55.56654 37.35723 16318 ft 326 kts 355°
2026-05-07 17:34 55.58928 37.35716 16060 ft 325 kts 355°
2026-05-07 17:34 55.61178 37.35693 15805 ft 324 kts 355°
2026-05-07 17:35 55.63436 37.35664 15560 ft 323 kts 354°
2026-05-07 17:35 55.65679 37.35635 15195 ft 322 kts 354°
2026-05-07 17:35 55.67919 37.35606 14767 ft 323 kts 354°
2026-05-07 17:35 55.70159 37.35576 14442 ft 320 kts 354°
2026-05-07 17:36 55.72386 37.35549 14035 ft 320 kts 354°
2026-05-07 17:36 55.74596 37.35455 13656 ft 319 kts 352°
2026-05-07 17:36 55.76813 37.35250 13228 ft 318 kts 351°
2026-05-07 17:36 55.79012 37.34995 12852 ft 317 kts 351°
2026-05-07 17:37 55.81198 37.34726 12538 ft 313 kts 351°
2026-05-07 17:37 55.83353 37.34463 12031 ft 310 kts 351°
2026-05-07 17:37 55.84768 37.34293 11769 ft 306 kts 350°
2026-05-07 17:37 55.86888 37.34046 11480 ft 304 kts 351°
2026-05-07 17:38 55.88992 37.33808 11195 ft 303 kts 351°
2026-05-07 17:38 55.91097 37.33572 10910 ft 303 kts 350°
2026-05-07 17:38 55.93187 37.33338 10634 ft 301 kts 350°
2026-05-07 17:38 55.95281 37.33102 10351 ft 300 kts 350°
2026-05-07 17:39 55.97322 37.32596 10080 ft 292 kts 338°
2026-05-07 17:39 55.99189 37.31311 9790 ft 284 kts 325°
2026-05-07 17:39 56.00850 37.29478 9490 ft 280 kts 321°
2026-05-07 17:39 56.02489 37.27611 9191 ft 279 kts 321°
2026-05-07 17:40 56.04128 37.25753 8915 ft 278 kts 321°
2026-05-07 17:40 56.05754 37.23913 8633 ft 276 kts 321°
2026-05-07 17:40 56.07393 37.22111 8348 ft 278 kts 327°
2026-05-07 17:40 56.09295 37.21317 8062 ft 291 kts 357°
2026-05-07 17:41 56.11252 37.22377 7751 ft 303 kts 30°
2026-05-07 17:41 56.12705 37.25055 7437 ft 309 kts 52°
2026-05-07 17:41 56.13934 37.28195 7184 ft 304 kts 53°
2026-05-07 17:41 56.15104 37.31280 7059 ft 293 kts 53°
2026-05-07 17:42 56.16075 37.34413 6913 ft 284 kts 68°
2026-05-07 17:42 56.16620 37.37790 6671 ft 280 kts 75°
2026-05-07 17:42 56.17112 37.41133 6410 ft 277 kts 75°
2026-05-07 17:42 56.17611 37.44465 6132 ft 275 kts 74°
2026-05-07 17:43 56.18106 37.47759 5862 ft 272 kts 74°
2026-05-07 17:43 56.18597 37.51018 5620 ft 268 kts 74°
2026-05-07 17:43 56.19062 37.54236 5327 ft 265 kts 79°
2026-05-07 17:43 56.19089 37.57497 5070 ft 260 kts 101°
2026-05-07 17:44 56.18506 37.60510 4891 ft 253 kts 122°
2026-05-07 17:44 56.17433 37.62980 4794 ft 249 kts 138°
2026-05-07 17:44 56.16219 37.65194 4658 ft 249 kts 138°
2026-05-07 17:44 56.15009 37.67406 4537 ft 248 kts 138°
2026-05-07 17:45 56.13801 37.69620 4409 ft 248 kts 137°
2026-05-07 17:45 56.12608 37.71813 4289 ft 240 kts 137°
2026-05-07 17:45 56.11479 37.73894 4199 ft 225 kts 137°
2026-05-07 17:45 56.10424 37.75738 4097 ft 205 kts 147°
2026-05-07 17:46 56.09207 37.76790 4004 ft 195 kts 171°
2026-05-07 17:46 56.07843 37.76918 3861 ft 197 kts 193°
2026-05-07 17:46 56.06589 37.76273 3705 ft 196 kts 202°
2026-05-07 17:46 56.05304 37.75528 3528 ft 191 kts 201°
2026-05-07 17:47 56.04048 37.74809 3381 ft 188 kts 201°
2026-05-07 17:47 56.02825 37.74019 3221 ft 185 kts 212°
2026-05-07 17:47 56.01911 37.72561 3083 ft 169 kts 237°
2026-05-07 17:47 56.01464 37.70703 2955 ft 161 kts 257°
2026-05-07 17:48 56.01189 37.68795 2837 ft 154 kts 256°
2026-05-07 17:48 56.00921 37.66980 2709 ft 149 kts 256°
2026-05-07 17:48 56.00650 37.65199 2587 ft 148 kts 255°
2026-05-07 17:48 56.00384 37.63421 2474 ft 148 kts 256°
2026-05-07 17:49 56.00120 37.61634 2360 ft 149 kts 256°
2026-05-07 17:49 55.99855 37.59845 2310 ft 149 kts 256°
2026-05-07 17:49 55.99591 37.58055 2149 ft 149 kts 256°
2026-05-07 17:49 55.99331 37.56294 1980 ft 150 kts 256°
2026-05-07 17:50 55.99057 37.54450 1784 ft 150 kts 256°
2026-05-07 17:50 55.98793 37.52666 1575 ft 151 kts 256°
2026-05-07 17:50 55.98534 37.50857 1366 ft 151 kts 256°
2026-05-07 17:50 55.98262 37.49041 1164 ft 151 kts 257°
2026-05-07 17:51 55.97994 37.47239 1001 ft 151 kts 256°
2026-05-07 17:51 55.97727 37.45437 815 ft 151 kts 256°
2026-05-07 17:51 55.97450 37.43629 806 ft 153 kts 256°
2026-05-07 17:51 55.97158 37.41705 1353 ft 164 kts 256°
2026-05-07 17:52 55.96849 37.39648 1871 ft 174 kts 255°
2026-05-07 17:52 55.96515 37.37450 2074 ft 193 kts 255°
2026-05-07 17:52 55.96139 37.35063 2353 ft 206 kts 255°
2026-05-07 17:52 55.95873 37.32441 2548 ft 227 kts 275°
2026-05-07 17:53 55.96471 37.29840 3125 ft 234 kts 312°
2026-05-07 17:53 55.97899 37.28456 3828 ft 243 kts 349°
2026-05-07 17:53 55.99590 37.28671 4533 ft 251 kts
2026-05-07 17:53 56.01291 37.29434 4992 ft 256 kts 11°
2026-05-07 17:54 56.03021 37.30262 5010 ft 256 kts
2026-05-07 17:54 56.04756 37.30992 5005 ft 256 kts
2026-05-07 17:54 56.06403 37.32242 5000 ft 262 kts 34°
2026-05-07 17:54 56.07595 37.34711 5008 ft 267 kts 63°
2026-05-07 17:55 56.08047 37.37911 5019 ft 267 kts 87°
2026-05-07 17:55 56.08156 37.41242 5001 ft 268 kts 87°
2026-05-07 17:55 56.08263 37.44574 5014 ft 268 kts 88°
2026-05-07 17:55 56.08372 37.47903 5006 ft 268 kts 87°
2026-05-07 17:56 56.08483 37.51228 5007 ft 268 kts 87°
2026-05-07 17:56 56.08593 37.54522 5003 ft 268 kts 87°
2026-05-07 17:56 56.08704 37.57888 5002 ft 269 kts 87°
2026-05-07 17:56 56.08811 37.61225 5014 ft 268 kts 88°
2026-05-07 17:57 56.08916 37.64564 4784 ft 267 kts 88°
2026-05-07 17:57 56.08964 37.66745 4671 ft 265 kts 94°
2026-05-07 17:57 56.08312 37.70676 4382 ft 239 kts 127°
2026-05-07 17:57 56.07212 37.72782 4205 ft 229 kts 149°
2026-05-07 17:58 56.05842 37.73955 4042 ft 209 kts 169°
2026-05-07 17:58 56.04520 37.74196 3879 ft 190 kts 189°
2026-05-07 17:58 56.03290 37.73641 3794 ft 169 kts 208°
2026-05-07 17:58 56.02344 37.72551 3696 ft 159 kts 225°
2026-05-07 17:59 56.01645 37.71053 3541 ft 156 kts 241°
2026-05-07 17:59 56.01236 37.69274 3405 ft 155 kts 256°
2026-05-07 17:59 56.00964 37.67410 3199 ft 155 kts 255°
2026-05-07 17:59 56.00698 37.65589 3007 ft 149 kts 255°
2026-05-07 18:00 56.00438 37.63814 2808 ft 147 kts 256°
2026-05-07 18:00 56.00178 37.62048 2615 ft 146 kts 256°
2026-05-07 18:00 55.99921 37.60297 2436 ft 146 kts 256°
2026-05-07 18:00 55.99663 37.58542 2239 ft 146 kts 255°
2026-05-07 18:01 55.99403 37.56783 2044 ft 147 kts 256°
2026-05-07 18:01 55.99143 37.55019 1844 ft 148 kts 256°
2026-05-07 18:01 55.98881 37.53263 1654 ft 149 kts 255°
2026-05-07 18:01 55.98606 37.51477 1446 ft 149 kts 255°
2026-05-07 18:02 55.98074 37.47881 1057 ft 150 kts 256°
2026-05-07 18:02 55.97815 37.46075 856 ft 150 kts 256°
2026-05-07 18:02 55.97532 37.44291 678 ft 151 kts 256°
2026-05-07 18:03 55.97256 37.42528 1380 ft 146 kts 255°
2026-05-07 18:03 55.96952 37.40677 1824 ft 168 kts 253°
2026-05-07 18:03 55.96614 37.38626 2141 ft 180 kts 255°
2026-05-07 18:03 55.96485 37.36314 2270 ft 199 kts 279°
2026-05-07 18:04 55.97183 37.34092 2381 ft 223 kts 319°
2026-05-07 18:04 55.98689 37.33124 2790 ft 240 kts 352°
2026-05-07 18:04 56.00372 37.33011 2969 ft 243 kts 358°
2026-05-07 18:04 56.02072 37.33090 3005 ft 243 kts 359°
2026-05-07 18:05 56.03748 37.33216 3008 ft 242 kts
2026-05-07 18:05 56.05433 37.33339 3006 ft 242 kts 359°
2026-05-07 18:05 56.07119 37.33444 3008 ft 242 kts 359°
2026-05-07 18:05 56.08798 37.33529 3009 ft 242 kts 359°
2026-05-07 18:06 56.10478 37.33600 3007 ft 242 kts 359°
2026-05-07 18:06 56.12172 37.33662 3007 ft 242 kts 359°
2026-05-07 18:06 56.13848 37.33882 3005 ft 244 kts 13°
2026-05-07 18:06 56.15349 37.35205 3011 ft 247 kts 40°
2026-05-07 18:07 56.16366 37.37685 3011 ft 248 kts 70°
2026-05-07 18:07 56.16863 37.40612 3019 ft 249 kts 74°
2026-05-07 18:07 56.17344 37.43637 3010 ft 249 kts 74°
2026-05-07 18:07 56.17819 37.46627 3020 ft 248 kts 74°
2026-05-07 18:08 56.18295 37.49606 3244 ft 250 kts 74°
2026-05-07 18:08 56.18771 37.52578 3496 ft 252 kts 74°
2026-05-07 18:08 56.18989 37.55695 3730 ft 253 kts 98°
2026-05-07 18:08 56.18435 37.58640 3924 ft 252 kts 126°
2026-05-07 18:09 56.17219 37.60816 4002 ft 246 kts 154°
2026-05-07 18:09 56.15690 37.62141 4007 ft 244 kts 159°
2026-05-07 18:09 56.14140 37.63414 4012 ft 244 kts 159°
2026-05-07 18:09 56.12597 37.64689 4008 ft 244 kts 159°
2026-05-07 18:10 56.11057 37.65965 3877 ft 243 kts 159°
2026-05-07 18:10 56.09525 37.67238 3800 ft 243 kts 159°
2026-05-07 18:10 56.07993 37.68511 3667 ft 243 kts 159°
2026-05-07 18:10 56.06454 37.69788 3495 ft 242 kts 158°
2026-05-07 18:11 56.04967 37.71028 3330 ft 230 kts 158°
2026-05-07 18:11 56.03994 37.71684 3186 ft 222 kts 173°
2026-05-07 18:11 56.02144 37.71051 3008 ft 191 kts 217°
2026-05-07 18:11 56.01335 37.69418 2879 ft 170 kts 244°
2026-05-07 18:12 56.00989 37.67433 2732 ft 161 kts 255°
2026-05-07 18:12 56.00707 37.65514 2610 ft 159 kts 255°
2026-05-07 18:12 56.00437 37.63682 2538 ft 149 kts 255°
2026-05-07 18:12 56.00174 37.61912 2510 ft 146 kts 255°
2026-05-07 18:13 55.99914 37.60177 2428 ft 147 kts 255°
2026-05-07 18:13 55.99646 37.58398 2225 ft 147 kts 255°
2026-05-07 18:13 55.99389 37.56668 2038 ft 147 kts 255°
2026-05-07 18:13 55.99123 37.54874 1841 ft 148 kts 255°
2026-05-07 18:14 55.98863 37.53121 1648 ft 148 kts 255°
2026-05-07 18:14 55.98599 37.51337 1452 ft 149 kts 255°
2026-05-07 18:14 55.98331 37.49540 1254 ft 150 kts 255°
2026-05-07 18:14 55.98060 37.47733 1047 ft 151 kts 255°
2026-05-07 18:15 55.97799 37.45906 837 ft 152 kts 255°
2026-05-07 18:15 55.97534 37.44118 664 ft 151 kts 255°
2026-05-07 18:15 55.97284 37.42445 646 ft 113 kts 254°
2026-05-07 18:15 55.97130 37.41408 643 ft 61 kts 256°
2026-05-07 18:16 55.97063 37.40941 641 ft 23 kts 254°
2026-05-07 18:16 55.97006 37.40567 642 ft 40 kts 253°
2026-05-07 18:16 55.96945 37.40144 641 ft 18 kts 272°
2026-05-07 18:16 55.97026 37.40022 639 ft 17 kts 342°
2026-05-07 18:17 55.97146 37.39965 639 ft 19 kts 342°
2026-05-07 18:17 55.97273 37.39909 640 ft 11 kts 345°
2026-05-07 18:17 55.97338 37.39911 639 ft 8 kts 41°
2026-05-07 18:17 55.97361 37.40025 646 ft 12 kts 76°
2026-05-07 18:18 55.97383 37.40190 639 ft 15 kts 75°
2026-05-07 18:18 55.97416 37.40393 639 ft 19 kts 75°
2026-05-07 18:18 55.97450 37.40625 640 ft 19 kts 75°
2026-05-07 18:18 55.97484 37.40845 642 ft 18 kts 75°
2026-05-07 18:19 55.97514 37.41050 639 ft 17 kts 75°
2026-05-07 18:19 55.97542 37.41243 644 ft 16 kts 75°
2026-05-07 18:19 55.97570 37.41428 642 ft 15 kts 75°
2026-05-07 18:19 55.97603 37.41592 640 ft 12 kts 44°
2026-05-07 18:20 55.97674 37.41568 639 ft 10 kts 322°
2026-05-07 18:20 55.97733 37.41511 643 ft 9 kts 346°
2026-05-07 18:20 55.97790 37.41486 643 ft 8 kts 346°
2026-05-07 18:20 55.97837 37.41455 639 ft 6 kts 318°
2026-05-07 18:21 55.97830 37.41434 645 ft 2 kts 218°
2026-05-07 18:21 55.97798 37.41400 639 ft 8 kts 226°
2026-05-07 18:21 55.97793 37.41383 642 ft 1 kts 253°
2026-05-07 18:21 55.97790 37.41355 642 ft 2 kts 257°
2026-05-07 18:22 55.97788 37.41339 643 ft 1 kts 256°
2026-05-07 18:22 55.97787 37.41329 646 ft 0 kts 256°
2026-05-07 18:22 55.97786 37.41321 645 ft 1 kts 256°
2026-05-07 18:22 55.97784 37.41313 639 ft 0 kts 256°
2026-05-07 18:25 55.97785 37.41313 639 ft 0 kts 256°
2026-05-07 18:26 55.97784 37.41313 639 ft 0 kts 256°